Regional Weather Roundup
Issued by NWS

Home | Current Version | Previous Version | Text Only | Print | Product List | Glossary Off
Versions: 1 2 3 4 5 6 7 8 9 10 11 12 13 14 15 16 17 18 19 20 21 22 23 24 25 26 27 28 29 30 31 32 33 34 35 36 37 38 39 40 41 42 43 44 45 46 47 48 49 50

000
ASUS43 KFSD 151702
RWRSD

WEATHER ROUNDUP FOR SOUTH DAKOTA
NATIONAL WEATHER SERVICE SIOUX FALLS SD
1100 AM CST MON JAN 15 2018

NOTE: "FAIR" INDICATES FEW OR NO CLOUDS BELOW 12,000 FEET WITH NO
SIGNIFICANT WEATHER AND/OR OBSTRUCTIONS TO VISIBILITY.


SDZ001>005-009-010-012>017-151800-
NORTHWEST AND NORTH CENTRAL SOUTH DAKOTA

CITY           SKY/WX    TMP DP  RH WIND       PRES   REMARKS
BUFFALO          N/A     -8 -16  67 NW17      30.64R WCI -31
FAITH            N/A     -7 -14  71 NW22G29   30.72R WCI -32
MOBRIDGE       PTSUNNY   -5 -15  62 N21       30.71R WCI -29
$$

SDZ012>016-024>037-041>051-057-063-072>074-151800-
SOUTHWEST AND SOUTH CENTRAL SOUTH DAKOTA

CITY           SKY/WX    TMP DP  RH WIND       PRES   REMARKS
RAPID CTY ARPT CLOUDY    -1  -7  75 N31G39    30.68R BLWGSNOWWCI -28
PIERRE         SUNNY     -4 -13  65 N29       30.73R WCI -31
CUSTER         SUNNY      5 -12  45 N12G20    30.40R WCI -11
ELLSWORTH AFB  DRIZZLE    0  -8  71 N24G33    30.67  WCI -24
PHILIP         SUNNY     -2  -9  72 NW20G26   30.76R WCI -24
PINE RIDGE     LGT SNOW   1  -7  68 N20G25    30.67R WCI -20
SPEARFISH        N/A     -4 -11  71 W10       30.67R WCI -21
WINNER         FAIR      -1 -10  65 NW31      30.68R WCI -28
$$

SDZ004>011-016>023-039-040-151800-
NORTHEAST SOUTH DAKOTA

CITY           SKY/WX    TMP DP  RH WIND       PRES   REMARKS
ABERDEEN       PTSUNNY   -6 -14  68 N24G32    30.70S WCI -32
WATERTOWN      PTSUNNY   -9 -16  71 N23       30.54R WCI -35
BROOKINGS      CLOUDY    -9 -16  71 N20G28    30.53  WCI -34
SISSETON         N/A     -8 -14  74 N26G33    30.63R WCI -35
$$

SDZ017-020-022-023-036>040-048>070-151800-
SOUTHEAST SOUTH DAKOTA

CITY           SKY/WX    TMP DP  RH WIND       PRES   REMARKS
SIOUX FALLS    PTSUNNY   -4 -12  68 NW23G31   30.56R WCI -29
HURON          CLOUDY    -5 -13  68 N21G31    30.68R HAZE    WCI -29
CHAMBERLAIN    MOSUNNY   -1 -10  68 NW23      30.70R WCI -25
MITCHELL       CLOUDY    -4 -11  72 NW28      30.69R HAZE    WCI -30
YANKTON        PTSUNNY   -1  -8  72 NW22G30   30.64R HAZE    WCI -24
$$

ABBREVIATIONS USED IN REMARKS
   TC - TEMPERATURE IN CELSIUS
  WCI - WIND CHILL INDEX
   HX - HEAT INDEX
  VSB - VISIBILITY





USA.gov is the U.S. government's official web portal to all federal, state and local government web resources and services.